Hourly Data Report for October 30, 2018

TORONTO CITY
ONTARIO
Current Station Operator: ECCC - MSC

43°40'00.000" N
79°24'00.000" W
112.50 m
6158355
71508
XTO

Download Data

Hourly Data (October 2018)
Hourly Data Report for October 30, 2018
TIME
LST
Temp Definition
°C
Dew Point Definition
°C
Rel Hum Definition
%
Precip. Amount Definition
mm

Wind Dir Definition
10's deg

Wind Spd Definition
km/h
Visibility Definition
km
Stn Press Definition
kPa
Hmdx Definition


Wind Chill Definition


Weather Definition


00:00 3.2 -1.5 72 0.0 LegendMM LegendMM   100.26     LegendNANA
01:00 2.9 -1.3 74 0.0 LegendMM LegendMM   100.28     LegendNANA
02:00 2.0 -2.1 75 0.0 LegendMM LegendMM   100.32     LegendNANA
03:00 1.8 -1.8 77 0.0 LegendMM LegendMM   100.34     LegendNANA
04:00 1.8 -2.1 76 0.0 LegendMM LegendMM   100.37     LegendNANA
05:00 0.9 -1.9 82 0.0 LegendMM LegendMM   100.42     LegendNANA
06:00 1.2 -1.8 80 0.0 LegendMM LegendMM   100.47     LegendNANA
07:00 1.2 -2.1 79 0.0 LegendMM LegendMM   100.50     LegendNANA
08:00 2.1 -1.0 80 0.0 LegendMM LegendMM   100.57     LegendNANA
09:00 5.3 0.6 72 0.0 LegendMM LegendMM   100.62     LegendNANA
10:00 7.5 1.2 65 0.0 LegendMM LegendMM   100.64     LegendNANA
11:00 8.8 -0.3 53 0.0 LegendMM LegendMM   100.64     LegendNANA
12:00 10.0 0.6 52 0.0 LegendMM LegendMM   100.58     LegendNANA
13:00 10.3 1.5 55 0.0 LegendMM LegendMM   100.53     LegendNANA
14:00 9.2 1.0 56 0.0 LegendMM LegendMM   100.49     LegendNANA
15:00 9.9 0.8 53 0.0 LegendMM LegendMM   100.50     LegendNANA
16:00 9.8 0.8 54 0.0 LegendMM LegendMM   100.43     LegendNANA
17:00 9.5 1.9 59 0.0 LegendMM LegendMM   100.45     LegendNANA
18:00 9.1 2.4 63 0.0 LegendMM LegendMM   100.40     LegendNANA
19:00 9.2 4.3 72 0.0 LegendMM LegendMM   100.34     LegendNANA
20:00 9.2 4.8 74 0.0 LegendMM LegendMM   100.32     LegendNANA
21:00 9.1 5.1 76 0.0 LegendMM LegendMM   100.26     LegendNANA
22:00 9.5 4.8 72 0.0 LegendMM LegendMM   100.25     LegendNANA
23:00 9.2 6.2 82 0.4 LegendMM LegendMM   100.20     LegendNANA

Notes on Data Quality.

Legend

  • E = Estimated
  • M = Missing
  • NA = Not Available*
  • [empty] = Indicates an unobserved value
Date modified: